User: anonymous   Login
Location: Peebles
(55.6412°N, 3.1714°W)
Time: 07:37:08
(UTC+00:00)
Language:

Cosmos 2082 - Orbit

View from above orbital plane
View from above orbital plane
View from above satellite
View from above satellite

Ground track
Ground track

The orbit data is extracted from the following two-line orbital elements,

1 20624U 90046A   21336.90786640 -.00000250  00000-0 -10584-3 0  9998
2 20624  71.0422  43.0996 0012716  54.8948 305.3364 14.14371072627333
Epoch (UTC): 02 December 2021 21:47:19
Eccentricity: 0.0012716
inclination: 71.0422°
perigee height: 835 km
apogee height: 853 km
right ascension of ascending node: 43.0996°
argument of perigee: 54.8948°
revolutions per day: 14.14371072
mean anomaly at epoch: 305.3364°
orbit number at epoch: 62733

The dashed part of the orbit path shows where the satellite is in the earth's shadow,  

DLR